Location: North Runcton
(52.7000°N, 0.4333°E)
Time: 20:06:11
(UTC+00:00)

IRS-1C Rocket - Pass Details

Date: 19 May 2025
Orbit: 798 x 805 km, 98.8° (Epoch: 22 June)

Event Time Altitude Azimuth Distance (km) Brightness Sun altitude
Exits shadow 21:15:29 - 171° (S) 2,531 6.2 -9.5°
Reaches altitude 10° 21:15:52 10° 172° (S) 2,380 6.0 -9.6°
Maximum altitude 21:21:07 71° 256° (WSW) 853 4.3 -10.1°
Drops below altitude 10° 21:26:24 10° 341° (NNW) 2,393 7.9 -10.5°
Sets 21:28:46 0° 344° (NNW) 3,327 8.9 -10.7°
